• Em Portugal
  • Lista de países
  • Para 7 dias
  • Temperatura da água
  • Mapas de satélite
  • Mapa do tempo
  • Widgets de tempo
  • user-avatar
    Iniciar Sessão

    Previsão horária em Stajkowo

    Hoje, 24 Junho, Domingo

    Tempo Temperatura Precipitação Vento Pressão Humidade
    00:00 +12°C° 0,1 mm 4 m/s 758 mmHg 87%
    01:00 +12°C° 0,1 mm 4 m/s 758 mmHg 88%
    02:00 +12°C° 0,1 mm 4 m/s 758 mmHg 89%
    03:00 +12°C° 0,1 mm 4 m/s 758 mmHg 89%
    04:00 +12°C° 0,1 mm 4 m/s 758 mmHg 90%
    05:00 +13°C° 0 mm 5 m/s 758 mmHg 85%
    06:00 +14°C° 0 mm 5 m/s 758 mmHg 81%
    07:00 +15°C° 0 mm 5 m/s 758 mmHg 77%
    08:00 +16°C° 0,1 mm 5 m/s 758 mmHg 73%
    09:00 +17°C° 0,1 mm 5 m/s 758 mmHg 69%
    10:00 +17°C° 0,1 mm 5 m/s 759 mmHg 66%
    11:00 +19°C° 0,3 mm 5 m/s 759 mmHg 66%
    12:00 +19°C° 0,3 mm 5 m/s 759 mmHg 66%
    13:00 +19°C° 0,3 mm 5 m/s 759 mmHg 65%
    14:00 +19°C° 0,3 mm 5 m/s 759 mmHg 66%
    15:00 +19°C° 0,3 mm 5 m/s 759 mmHg 66%
    16:00 +19°C° 0,3 mm 5 m/s 759 mmHg 66%
    17:00 +18°C° 0,2 mm 4 m/s 759 mmHg 70%
    18:00 +17°C° 0,2 mm 4 m/s 759 mmHg 73%
    19:00 +17°C° 0,2 mm 4 m/s 759 mmHg 77%
    20:00 +14°C° 0,1 mm 3 m/s 759 mmHg 82%
    21:00 +13°C° 0,1 mm 3 m/s 759 mmHg 86%
    22:00 +12°C° 0,1 mm 2 m/s 759 mmHg 91%
    23:00 +12°C° 0,1 mm 2 m/s 759 mmHg 91%

    Amanhã, 25 Junho, Segunda-feira

    Tempo Temperatura Precipitação Vento Pressão Humidade
    00:00 +11°C° 0,1 mm 3 m/s 759 mmHg 91%
    01:00 +11°C° 0,1 mm 3 m/s 759 mmHg 91%
    02:00 +11°C° 0,1 mm 3 m/s 759 mmHg 91%
    03:00 +11°C° 0,1 mm 4 m/s 759 mmHg 91%
    04:00 +11°C° 0,1 mm 4 m/s 759 mmHg 91%
    05:00 +13°C° 0,1 mm 4 m/s 759 mmHg 87%
    06:00 +14°C° 0,1 mm 4 m/s 760 mmHg 83%
    07:00 +17°C° 0,1 mm 4 m/s 760 mmHg 79%
    08:00 +17°C° 0,1 mm 5 m/s 760 mmHg 71%
    09:00 +20°C° 0,1 mm 5 m/s 760 mmHg 64%
    10:00 +21°C° 0,1 mm 6 m/s 760 mmHg 57%
    11:00 +22°C° 0,1 mm 5 m/s 760 mmHg 55%
    12:00 +22°C° 0,1 mm 5 m/s 760 mmHg 53%
    13:00 +22°C° 0,1 mm 5 m/s 760 mmHg 50%
    14:00 +22°C° 0 mm 5 m/s 760 mmHg 50%
    15:00 +22°C° 0 mm 5 m/s 761 mmHg 49%
    16:00 +22°C° 0 mm 5 m/s 761 mmHg 48%
    17:00 +21°C° 0 mm 4 m/s 761 mmHg 54%
    18:00 +20°C° 0 mm 4 m/s 761 mmHg 60%
    19:00 +19°C° 0 mm 4 m/s 761 mmHg 66%
    20:00 +17°C° 0 mm 3 m/s 761 mmHg 75%
    21:00 +16°C° 0 mm 3 m/s 762 mmHg 83%
    22:00 +13°C° 0 mm 3 m/s 762 mmHg 91%
    23:00 +13°C° 0 mm 3 m/s 762 mmHg 91%

    Depois de amanhã, 26 Junho, Terça-feira

    Tempo Temperatura Precipitação Vento Pressão Humidade
    00:00 +13°C° 0 mm 3 m/s 762 mmHg 92%
    01:00 +13°C° 0 mm 3 m/s 762 mmHg 92%
    02:00 +13°C° 0 mm 3 m/s 762 mmHg 91%
    03:00 +14°C° 0 mm 3 m/s 762 mmHg 91%
    04:00 +14°C° 0 mm 3 m/s 762 mmHg 90%
    05:00 +16°C° 0 mm 3 m/s 762 mmHg 85%
    06:00 +17°C° 0 mm 3 m/s 763 mmHg 80%
    07:00 +19°C° 0 mm 3 m/s 763 mmHg 75%
    08:00 +20°C° 0,1 mm 3 m/s 763 mmHg 69%
    09:00 +21°C° 0,1 mm 3 m/s 763 mmHg 63%
    10:00 +22°C° 0,1 mm 3 m/s 763 mmHg 58%
    11:00 +24°C° 0 mm 3 m/s 763 mmHg 53%
    12:00 +23°C° 0 mm 4 m/s 763 mmHg 49%
    13:00 +25°C° 0 mm 4 m/s 763 mmHg 45%
    14:00 +25°C° 0 mm 4 m/s 763 mmHg 46%
    15:00 +23°C° 0 mm 4 m/s 763 mmHg 47%
    16:00 +23°C° 0 mm 5 m/s 763 mmHg 47%
    17:00 +22°C° 0 mm 4 m/s 763 mmHg 52%
    18:00 +20°C° 0 mm 4 m/s 763 mmHg 57%
    19:00 +19°C° 0 mm 3 m/s 763 mmHg 62%
    20:00 +17°C° 0 mm 3 m/s 764 mmHg 70%
    21:00 +14°C° 0 mm 3 m/s 764 mmHg 78%
    22:00 +14°C° 0 mm 2 m/s 764 mmHg 86%
    23:00 +13°C° 0 mm 2 m/s 764 mmHg 88%

    27 Junho, Quarta-feira

    Tempo Temperatura Precipitação Vento Pressão Humidade
    00:00 +13°C° 0 mm 1 m/s 764 mmHg 89%
    01:00 +12°C° 0 mm 1 m/s 764 mmHg 90%
    02:00 +13°C° 0 mm 1 m/s 764 mmHg 89%
    03:00 +13°C° 0 mm 1 m/s 764 mmHg 89%
    04:00 +13°C° 0 mm 2 m/s 764 mmHg 88%
    05:00 +15°C° 0 mm 2 m/s 764 mmHg 80%
    06:00 +17°C° 0 mm 3 m/s 764 mmHg 72%
    07:00 +19°C° 0 mm 3 m/s 765 mmHg 64%
    08:00 +20°C° 0 mm 4 m/s 765 mmHg 60%
    09:00 +21°C° 0 mm 5 m/s 765 mmHg 55%
    10:00 +22°C° 0 mm 5 m/s 765 mmHg 51%
    11:00 +23°C° 0 mm 6 m/s 765 mmHg 50%
    12:00 +23°C° 0 mm 6 m/s 764 mmHg 50%
    13:00 +24°C° 0 mm 7 m/s 764 mmHg 49%
    14:00 +23°C° 0 mm 7 m/s 764 mmHg 50%
    15:00 +23°C° 0 mm 7 m/s 764 mmHg 51%
    16:00 +22°C° 0 mm 7 m/s 764 mmHg 53%
    17:00 +22°C° 0 mm 7 m/s 764 mmHg 57%
    18:00 +21°C° 0 mm 7 m/s 764 mmHg 61%
    19:00 +20°C° 0 mm 6 m/s 764 mmHg 66%
    20:00 +19°C° 0 mm 6 m/s 764 mmHg 73%
    21:00 +16°C° 0 mm 6 m/s 765 mmHg 79%
    22:00 +15°C° 0 mm 5 m/s 765 mmHg 86%
    23:00 +15°C° 0 mm 5 m/s 764 mmHg 89%

    28 Junho, Quinta-feira

    Tempo Temperatura Precipitação Vento Pressão Humidade
    00:00 +14°C° 0 mm 5 m/s 764 mmHg 92%
    01:00 +14°C° 0 mm 4 m/s 764 mmHg 95%
    02:00 +14°C° 0 mm 4 m/s 764 mmHg 95%
    03:00 +14°C° 0 mm 4 m/s 764 mmHg 95%
    04:00 +14°C° 0 mm 4 m/s 764 mmHg 96%
    05:00 +15°C° 0 mm 4 m/s 764 mmHg 91%
    06:00 +18°C° 0 mm 4 m/s 764 mmHg 86%
    07:00 +19°C° 0 mm 4 m/s 763 mmHg 81%
    08:00 +20°C° 0,1 mm 5 m/s 763 mmHg 76%
    09:00 +21°C° 0,1 mm 6 m/s 763 mmHg 71%
    10:00 +22°C° 0,1 mm 7 m/s 762 mmHg 66%
    11:00 +21°C° 0,7 mm 7 m/s 762 mmHg 73%
    12:00 +20°C° 0,7 mm 7 m/s 761 mmHg 80%
    13:00 +20°C° 0,7 mm 7 m/s 761 mmHg 87%
    14:00 +18°C° 0,9 mm 7 m/s 760 mmHg 89%
    15:00 +18°C° 0,9 mm 7 m/s 760 mmHg 91%
    16:00 +17°C° 0,9 mm 7 m/s 759 mmHg 92%
    17:00 +17°C° 1,5 mm 7 m/s 759 mmHg 92%
    18:00 +17°C° 1,5 mm 8 m/s 758 mmHg 92%
    19:00 +17°C° 1,5 mm 8 m/s 758 mmHg 92%
    20:00 +17°C° 0,6 mm 8 m/s 758 mmHg 92%
    21:00 +17°C° 0,6 mm 8 m/s 757 mmHg 91%
    22:00 +17°C° 0,6 mm 8 m/s 757 mmHg 91%
    23:00 +17°C° 0,7 mm 7 m/s 757 mmHg 92%

    29 Junho, Sexta-feira

    Tempo Temperatura Precipitação Vento Pressão Humidade
    00:00 +17°C° 0,7 mm 7 m/s 756 mmHg 93%
    01:00 +17°C° 0,7 mm 7 m/s 756 mmHg 94%
    02:00 +17°C° 1,9 mm 7 m/s 755 mmHg 94%
    03:00 +17°C° 1,9 mm 7 m/s 755 mmHg 95%
    04:00 +17°C° 1,9 mm 6 m/s 754 mmHg 96%
    05:00 +17°C° 0,8 mm 6 m/s 754 mmHg 96%
    06:00 +17°C° 0,8 mm 6 m/s 754 mmHg 96%
    07:00 +17°C° 0,8 mm 6 m/s 754 mmHg 96%
    08:00 +19°C° 0,4 mm 6 m/s 754 mmHg 95%
    09:00 +19°C° 0,4 mm 6 m/s 754 mmHg 95%
    10:00 +20°C° 0,4 mm 5 m/s 754 mmHg 94%
    11:00 +20°C° 0,2 mm 5 m/s 754 mmHg 92%
    12:00 +21°C° 0,2 mm 5 m/s 754 mmHg 91%
    13:00 +21°C° 0,2 mm 5 m/s 754 mmHg 89%
    14:00 +22°C° 0,2 mm 5 m/s 754 mmHg 87%
    15:00 +22°C° 0,2 mm 5 m/s 754 mmHg 85%
    16:00 +22°C° 0,2 mm 4 m/s 754 mmHg 83%
    17:00 +22°C° 0,2 mm 4 m/s 754 mmHg 84%
    18:00 +21°C° 0,2 mm 4 m/s 754 mmHg 85%
    19:00 +21°C° 0,2 mm 4 m/s 754 mmHg 87%
    20:00 +19°C° 0,1 mm 4 m/s 755 mmHg 90%
    21:00 +18°C° 0,1 mm 3 m/s 755 mmHg 93%
    22:00 +17°C° 0,1 mm 3 m/s 755 mmHg 96%
    23:00 +17°C° 0,1 mm 4 m/s 755 mmHg 95%
    Mostrar mais